owner,sensor,date,latitude,longitude,sea_surface_height_above_sea_level,qcFlag 
COMPS,ioos:station:USF.COMPS:ANM:1,2011-02-01T00:00:00Z,27.5400,-82.7400,0.015,1111122 
COMPS,ioos:station:USF.COMPS:ANM:1,2011-02-01T00:06:00Z,27.5400,-82.7400,0.024,1111122 
COMPS,ioos:station:USF.COMPS:ANM:1,2011-02-01T00:12:00Z,27.5400,-82.7400,0.032,1111122 
COMPS,ioos:station:USF.COMPS:ANM:1,2011-02-01T00:18:00Z,27.5400,-82.7400,0.036,1111122 
COMPS,ioos:station:USF.COMPS:ANM:1,2011-02-01T00:24:00Z,27.5400,-82.7400,0.036,1111122 
COMPS,ioos:station:USF.COMPS:ANM:1,2011-02-01T00:30:00Z,27.5400,-82.7400,0.052,1111122 
COMPS,ioos:station:USF.COMPS:ANM:1,2011-02-01T00:36:00Z,27.5400,-82.7400,0.072,1111122 
COMPS,ioos:station:USF.COMPS:ANM:1,2011-02-01T00:42:00Z,27.5400,-82.7400,0.09,1111122 
COMPS,ioos:station:USF.COMPS:ANM:1,2011-02-01T00:48:00Z,27.5400,-82.7400,0.075,1111122 
COMPS,ioos:station:USF.COMPS:ANM:1,2011-02-01T00:54:00Z,27.5400,-82.7400,0.081,1111122 
COMPS,ioos:station:USF.COMPS:ANM:1,2011-02-01T01:00:00Z,27.5400,-82.7400,0.099,1111122 
COMPS,ioos:station:USF.COMPS:ANM:1,2011-02-01T01:06:00Z,27.5400,-82.7400,0.103,1111122 
COMPS,ioos:station:USF.COMPS:ANM:1,2011-02-01T01:12:00Z,27.5400,-82.7400,0.112,1111122 
COMPS,ioos:station:USF.COMPS:ANM:1,2011-02-01T01:18:00Z,27.5400,-82.7400,0.117,1111122 
COMPS,ioos:station:USF.COMPS:ANM:1,2011-02-01T01:24:00Z,27.5400,-82.7400,0.121,1111122 
COMPS,ioos:station:USF.COMPS:ANM:1,2011-02-01T01:30:00Z,27.5400,-82.7400,0.127,1111122 
COMPS,ioos:station:USF.COMPS:ANM:1,2011-02-01T01:36:00Z,27.5400,-82.7400,0.12,1111122 
COMPS,ioos:station:USF.COMPS:ANM:1,2011-02-01T01:42:00Z,27.5400,-82.7400,0.129,1111122 
COMPS,ioos:station:USF.COMPS:ANM:1,2011-02-01T01:48:00Z,27.5400,-82.7400,0.133,1111122 
COMPS,ioos:station:USF.COMPS:ANM:1,2011-02-01T01:54:00Z,27.5400,-82.7400,0.134,1111122 
COMPS,ioos:station:USF.COMPS:ANM:1,2011-02-01T02:00:00Z,27.5400,-82.7400,0.137,1111122 
COMPS,ioos:station:USF.COMPS:ANM:1,2011-02-01T02:06:00Z,27.5400,-82.7400,0.144,1111122 
COMPS,ioos:station:USF.COMPS:ANM:1,2011-02-01T02:12:00Z,27.5400,-82.7400,0.16,1111122 
COMPS,ioos:station:USF.COMPS:ANM:1,2011-02-01T02:18:00Z,27.5400,-82.7400,0.145,1111122 
COMPS,ioos:station:USF.COMPS:ANM:1,2011-02-01T02:24:00Z,27.5400,-82.7400,0.151,1111122 
COMPS,ioos:station:USF.COMPS:ANM:1,2011-02-01T02:30:00Z,27.5400,-82.7400,0.147,1111122 
COMPS,ioos:station:USF.COMPS:ANM:1,2011-02-01T02:36:00Z,27.5400,-82.7400,0.139,1111122 
COMPS,ioos:station:USF.COMPS:ANM:1,2011-02-01T02:42:00Z,27.5400,-82.7400,0.139,1111122 
COMPS,ioos:station:USF.COMPS:ANM:1,2011-02-01T02:48:00Z,27.5400,-82.7400,0.148,1111122 
COMPS,ioos:station:USF.COMPS:ANM:1,2011-02-01T02:54:00Z,27.5400,-82.7400,0.153,1111122 
COMPS,ioos:station:USF.COMPS:ANM:1,2011-02-01T03:00:00Z,27.5400,-82.7400,0.153,1111122 
COMPS,ioos:station:USF.COMPS:ANM:1,2011-02-01T03:06:00Z,27.5400,-82.7400,0.159,1111122 
COMPS,ioos:station:USF.COMPS:ANM:1,2011-02-01T03:12:00Z,27.5400,-82.7400,0.157,1111122 
COMPS,ioos:station:USF.COMPS:ANM:1,2011-02-01T03:18:00Z,27.5400,-82.7400,0.158,1111122 
COMPS,ioos:station:USF.COMPS:ANM:1,2011-02-01T03:24:00Z,27.5400,-82.7400,0.143,1111122 
COMPS,ioos:station:USF.COMPS:ANM:1,2011-02-01T03:30:00Z,27.5400,-82.7400,0.137,1111122 
COMPS,ioos:station:USF.COMPS:ANM:1,2011-02-01T03:36:00Z,27.5400,-82.7400,0.136,1111122 
COMPS,ioos:station:USF.COMPS:ANM:1,2011-02-01T03:42:00Z,27.5400,-82.7400,0.142,1111122 
COMPS,ioos:station:USF.COMPS:ANM:1,2011-02-01T03:48:00Z,27.5400,-82.7400,0.15,1111122 
COMPS,ioos:station:USF.COMPS:ANM:1,2011-02-01T03:54:00Z,27.5400,-82.7400,0.15,1111122 
COMPS,ioos:station:USF.COMPS:ANM:1,2011-02-01T04:00:00Z,27.5400,-82.7400,0.127,1111122 
COMPS,ioos:station:USF.COMPS:ANM:1,2011-02-01T04:06:00Z,27.5400,-82.7400,0.114,1111122 
COMPS,ioos:station:USF.COMPS:ANM:1,2011-02-01T04:12:00Z,27.5400,-82.7400,0.113,1111122 
COMPS,ioos:station:USF.COMPS:ANM:1,2011-02-01T04:18:00Z,27.5400,-82.7400,0.098,1111122 
COMPS,ioos:station:USF.COMPS:ANM:1,2011-02-01T04:24:00Z,27.5400,-82.7400,0.095,1111122 
COMPS,ioos:station:USF.COMPS:ANM:1,2011-02-01T04:30:00Z,27.5400,-82.7400,0.093,1111122 
COMPS,ioos:station:USF.COMPS:ANM:1,2011-02-01T04:36:00Z,27.5400,-82.7400,0.097,1111122 
COMPS,ioos:station:USF.COMPS:ANM:1,2011-02-01T04:42:00Z,27.5400,-82.7400,0.081,1111122 
COMPS,ioos:station:USF.COMPS:ANM:1,2011-02-01T04:48:00Z,27.5400,-82.7400,0.061,1111122 
COMPS,ioos:station:USF.COMPS:ANM:1,2011-02-01T04:54:00Z,27.5400,-82.7400,0.044,1111122 
COMPS,ioos:station:USF.COMPS:ANM:1,2011-02-01T05:00:00Z,27.5400,-82.7400,0.032,1111122 
COMPS,ioos:station:USF.COMPS:ANM:1,2011-02-01T05:06:00Z,27.5400,-82.7400,0.02,1111122 
COMPS,ioos:station:USF.COMPS:ANM:1,2011-02-01T05:12:00Z,27.5400,-82.7400,0.012,1111122 
COMPS,ioos:station:USF.COMPS:ANM:1,2011-02-01T05:18:00Z,27.5400,-82.7400,-0.015,1111122 
COMPS,ioos:station:USF.COMPS:ANM:1,2011-02-01T05:24:00Z,27.5400,-82.7400,-0.038,1111122 
COMPS,ioos:station:USF.COMPS:ANM:1,2011-02-01T05:30:00Z,27.5400,-82.7400,-0.056,1111122 
COMPS,ioos:station:USF.COMPS:ANM:1,2011-02-01T05:36:00Z,27.5400,-82.7400,-0.071,1111122 
COMPS,ioos:station:USF.COMPS:ANM:1,2011-02-01T05:42:00Z,27.5400,-82.7400,-0.084,1111122 
COMPS,ioos:station:USF.COMPS:ANM:1,2011-02-01T05:48:00Z,27.5400,-82.7400,-0.102,1111122 
COMPS,ioos:station:USF.COMPS:ANM:1,2011-02-01T05:54:00Z,27.5400,-82.7400,-0.123,1111122 
COMPS,ioos:station:USF.COMPS:ANM:1,2011-02-01T06:00:00Z,27.5400,-82.7400,-0.14,1111122 
COMPS,ioos:station:USF.COMPS:ANM:1,2011-02-01T06:06:00Z,27.5400,-82.7400,-0.153,1111122 
COMPS,ioos:station:USF.COMPS:ANM:1,2011-02-01T06:12:00Z,27.5400,-82.7400,-0.163,1111122 
COMPS,ioos:station:USF.COMPS:ANM:1,2011-02-01T06:18:00Z,27.5400,-82.7400,-0.19,1111122 
COMPS,ioos:station:USF.COMPS:ANM:1,2011-02-01T06:24:00Z,27.5400,-82.7400,-0.211,1111122 
COMPS,ioos:station:USF.COMPS:ANM:1,2011-02-01T06:30:00Z,27.5400,-82.7400,-0.224,1111122 
COMPS,ioos:station:USF.COMPS:ANM:1,2011-02-01T06:36:00Z,27.5400,-82.7400,-0.239,1111122 
COMPS,ioos:station:USF.COMPS:ANM:1,2011-02-01T06:42:00Z,27.5400,-82.7400,-0.255,1111122 
COMPS,ioos:station:USF.COMPS:ANM:1,2011-02-01T06:48:00Z,27.5400,-82.7400,-0.273,1111122 
COMPS,ioos:station:USF.COMPS:ANM:1,2011-02-01T06:54:00Z,27.5400,-82.7400,-0.289,1111122 
COMPS,ioos:station:USF.COMPS:ANM:1,2011-02-01T07:00:00Z,27.5400,-82.7400,-0.308,1111122 
COMPS,ioos:station:USF.COMPS:ANM:1,2011-02-01T07:06:00Z,27.5400,-82.7400,-0.328,1111122 
COMPS,ioos:station:USF.COMPS:ANM:1,2011-02-01T07:12:00Z,27.5400,-82.7400,-0.343,1111122 
COMPS,ioos:station:USF.COMPS:ANM:1,2011-02-01T07:18:00Z,27.5400,-82.7400,-0.355,1111122 
COMPS,ioos:station:USF.COMPS:ANM:1,2011-02-01T07:24:00Z,27.5400,-82.7400,-0.372,1111122 
COMPS,ioos:station:USF.COMPS:ANM:1,2011-02-01T07:30:00Z,27.5400,-82.7400,-0.389,1111122 
COMPS,ioos:station:USF.COMPS:ANM:1,2011-02-01T07:36:00Z,27.5400,-82.7400,-0.406,1111122 
COMPS,ioos:station:USF.COMPS:ANM:1,2011-02-01T07:42:00Z,27.5400,-82.7400,-0.43,1111122 
COMPS,ioos:station:USF.COMPS:ANM:1,2011-02-01T07:48:00Z,27.5400,-82.7400,-0.451,1111122 
COMPS,ioos:station:USF.COMPS:ANM:1,2011-02-01T07:54:00Z,27.5400,-82.7400,-0.464,1111122 
COMPS,ioos:station:USF.COMPS:ANM:1,2011-02-01T08:00:00Z,27.5400,-82.7400,-0.48,1111122 
COMPS,ioos:station:USF.COMPS:ANM:1,2011-02-01T08:06:00Z,27.5400,-82.7400,-0.494,1111122 
COMPS,ioos:station:USF.COMPS:ANM:1,2011-02-01T08:12:00Z,27.5400,-82.7400,-0.504,1111122 
COMPS,ioos:station:USF.COMPS:ANM:1,2011-02-01T08:18:00Z,27.5400,-82.7400,-0.517,1111122 
COMPS,ioos:station:USF.COMPS:ANM:1,2011-02-01T08:24:00Z,27.5400,-82.7400,-0.528,1111122 
COMPS,ioos:station:USF.COMPS:ANM:1,2011-02-01T08:30:00Z,27.5400,-82.7400,-0.544,1111122 
COMPS,ioos:station:USF.COMPS:ANM:1,2011-02-01T08:36:00Z,27.5400,-82.7400,-0.557,1111122 
COMPS,ioos:station:USF.COMPS:ANM:1,2011-02-01T08:42:00Z,27.5400,-82.7400,-0.57,1111122 
COMPS,ioos:station:USF.COMPS:ANM:1,2011-02-01T08:48:00Z,27.5400,-82.7400,-0.581,1111122 
COMPS,ioos:station:USF.COMPS:ANM:1,2011-02-01T08:54:00Z,27.5400,-82.7400,-0.594,1111122 
COMPS,ioos:station:USF.COMPS:ANM:1,2011-02-01T09:00:00Z,27.5400,-82.7400,-0.609,1111122 
COMPS,ioos:station:USF.COMPS:ANM:1,2011-02-01T09:06:00Z,27.5400,-82.7400,-0.615,1111122 
COMPS,ioos:station:USF.COMPS:ANM:1,2011-02-01T09:12:00Z,27.5400,-82.7400,-0.626,1111122 
COMPS,ioos:station:USF.COMPS:ANM:1,2011-02-01T09:18:00Z,27.5400,-82.7400,-0.632,1111122 
COMPS,ioos:station:USF.COMPS:ANM:1,2011-02-01T09:24:00Z,27.5400,-82.7400,-0.636,1111122 
COMPS,ioos:station:USF.COMPS:ANM:1,2011-02-01T09:30:00Z,27.5400,-82.7400,-0.641,1111122 
COMPS,ioos:station:USF.COMPS:ANM:1,2011-02-01T09:36:00Z,27.5400,-82.7400,-0.643,1111122 
COMPS,ioos:station:USF.COMPS:ANM:1,2011-02-01T09:42:00Z,27.5400,-82.7400,-0.651,1111122 
COMPS,ioos:station:USF.COMPS:ANM:1,2011-02-01T09:48:00Z,27.5400,-82.7400,-0.643,1111122 
COMPS,ioos:station:USF.COMPS:ANM:1,2011-02-01T09:54:00Z,27.5400,-82.7400,-0.651,1111122 
COMPS,ioos:station:USF.COMPS:ANM:1,2011-02-01T10:00:00Z,27.5400,-82.7400,-0.653,1111122 
COMPS,ioos:station:USF.COMPS:ANM:1,2011-02-01T10:06:00Z,27.5400,-82.7400,-0.66,1111122 
COMPS,ioos:station:USF.COMPS:ANM:1,2011-02-01T10:12:00Z,27.5400,-82.7400,-0.662,1111122 
COMPS,ioos:station:USF.COMPS:ANM:1,2011-02-01T10:18:00Z,27.5400,-82.7400,-0.674,1111122 
COMPS,ioos:station:USF.COMPS:ANM:1,2011-02-01T10:24:00Z,27.5400,-82.7400,-0.667,1111122 
COMPS,ioos:station:USF.COMPS:ANM:1,2011-02-01T10:30:00Z,27.5400,-82.7400,-0.667,1111122 
COMPS,ioos:station:USF.COMPS:ANM:1,2011-02-01T10:36:00Z,27.5400,-82.7400,-0.668,1111122 
COMPS,ioos:station:USF.COMPS:ANM:1,2011-02-01T10:42:00Z,27.5400,-82.7400,-0.673,1111122 
COMPS,ioos:station:USF.COMPS:ANM:1,2011-02-01T10:48:00Z,27.5400,-82.7400,-0.674,1111122 
COMPS,ioos:station:USF.COMPS:ANM:1,2011-02-01T10:54:00Z,27.5400,-82.7400,-0.668,1111122 
COMPS,ioos:station:USF.COMPS:ANM:1,2011-02-01T11:00:00Z,27.5400,-82.7400,-0.668,1111122 
COMPS,ioos:station:USF.COMPS:ANM:1,2011-02-01T11:06:00Z,27.5400,-82.7400,-0.659,1111122 
COMPS,ioos:station:USF.COMPS:ANM:1,2011-02-01T11:12:00Z,27.5400,-82.7400,-0.655,1111122 
COMPS,ioos:station:USF.COMPS:ANM:1,2011-02-01T11:18:00Z,27.5400,-82.7400,-0.648,1111122 
COMPS,ioos:station:USF.COMPS:ANM:1,2011-02-01T11:24:00Z,27.5400,-82.7400,-0.643,1111122 
COMPS,ioos:station:USF.COMPS:ANM:1,2011-02-01T11:30:00Z,27.5400,-82.7400,-0.64,1111122 
COMPS,ioos:station:USF.COMPS:ANM:1,2011-02-01T11:36:00Z,27.5400,-82.7400,-0.633,1111122 
COMPS,ioos:station:USF.COMPS:ANM:1,2011-02-01T11:42:00Z,27.5400,-82.7400,-0.625,1111122 
COMPS,ioos:station:USF.COMPS:ANM:1,2011-02-01T11:48:00Z,27.5400,-82.7400,-0.618,1111122 
COMPS,ioos:station:USF.COMPS:ANM:1,2011-02-01T11:54:00Z,27.5400,-82.7400,-0.607,1111122 
COMPS,ioos:station:USF.COMPS:ANM:1,2011-02-01T12:00:00Z,27.5400,-82.7400,-0.593,1111122 
COMPS,ioos:station:USF.COMPS:ANM:1,2011-02-01T12:06:00Z,27.5400,-82.7400,-0.58,1111122 
COMPS,ioos:station:USF.COMPS:ANM:1,2011-02-01T12:12:00Z,27.5400,-82.7400,-0.571,1111122 
COMPS,ioos:station:USF.COMPS:ANM:1,2011-02-01T12:18:00Z,27.5400,-82.7400,-0.549,1111122 
COMPS,ioos:station:USF.COMPS:ANM:1,2011-02-01T12:24:00Z,27.5400,-82.7400,-0.546,1111122 
COMPS,ioos:station:USF.COMPS:ANM:1,2011-02-01T12:30:00Z,27.5400,-82.7400,-0.538,1111122 
COMPS,ioos:station:USF.COMPS:ANM:1,2011-02-01T12:36:00Z,27.5400,-82.7400,-0.534,1111122 
COMPS,ioos:station:USF.COMPS:ANM:1,2011-02-01T12:42:00Z,27.5400,-82.7400,-0.517,1111122 
COMPS,ioos:station:USF.COMPS:ANM:1,2011-02-01T12:48:00Z,27.5400,-82.7400,-0.507,1111122 
COMPS,ioos:station:USF.COMPS:ANM:1,2011-02-01T12:54:00Z,27.5400,-82.7400,-0.489,1111122 
COMPS,ioos:station:USF.COMPS:ANM:1,2011-02-01T13:00:00Z,27.5400,-82.7400,-0.475,1111122 
COMPS,ioos:station:USF.COMPS:ANM:1,2011-02-01T13:06:00Z,27.5400,-82.7400,-0.469,1111122 
COMPS,ioos:station:USF.COMPS:ANM:1,2011-02-01T13:12:00Z,27.5400,-82.7400,-0.463,1111122 
COMPS,ioos:station:USF.COMPS:ANM:1,2011-02-01T13:18:00Z,27.5400,-82.7400,-0.449,1111122 
COMPS,ioos:station:USF.COMPS:ANM:1,2011-02-01T13:24:00Z,27.5400,-82.7400,-0.433,1111122 
COMPS,ioos:station:USF.COMPS:ANM:1,2011-02-01T13:30:00Z,27.5400,-82.7400,-0.434,1111122 
COMPS,ioos:station:USF.COMPS:ANM:1,2011-02-01T13:36:00Z,27.5400,-82.7400,-0.422,1111122 
COMPS,ioos:station:USF.COMPS:ANM:1,2011-02-01T13:42:00Z,27.5400,-82.7400,-0.404,1111122 
COMPS,ioos:station:USF.COMPS:ANM:1,2011-02-01T13:48:00Z,27.5400,-82.7400,-0.397,1111122 
COMPS,ioos:station:USF.COMPS:ANM:1,2011-02-01T13:54:00Z,27.5400,-82.7400,-0.387,1111122 
COMPS,ioos:station:USF.COMPS:ANM:1,2011-02-01T14:00:00Z,27.5400,-82.7400,-0.386,1111122 
COMPS,ioos:station:USF.COMPS:ANM:1,2011-02-01T14:06:00Z,27.5400,-82.7400,-0.378,1111122 
COMPS,ioos:station:USF.COMPS:ANM:1,2011-02-01T14:12:00Z,27.5400,-82.7400,-0.363,1111122 
COMPS,ioos:station:USF.COMPS:ANM:1,2011-02-01T14:18:00Z,27.5400,-82.7400,-0.37,1111122 
COMPS,ioos:station:USF.COMPS:ANM:1,2011-02-01T14:24:00Z,27.5400,-82.7400,-0.36,1111122 
COMPS,ioos:station:USF.COMPS:ANM:1,2011-02-01T14:30:00Z,27.5400,-82.7400,-0.349,1111122 
COMPS,ioos:station:USF.COMPS:ANM:1,2011-02-01T14:36:00Z,27.5400,-82.7400,-0.331,1111122 
COMPS,ioos:station:USF.COMPS:ANM:1,2011-02-01T14:42:00Z,27.5400,-82.7400,-0.312,1111122 
COMPS,ioos:station:USF.COMPS:ANM:1,2011-02-01T14:48:00Z,27.5400,-82.7400,-0.301,1111122 
COMPS,ioos:station:USF.COMPS:ANM:1,2011-02-01T14:54:00Z,27.5400,-82.7400,-0.299,1111122 
COMPS,ioos:station:USF.COMPS:ANM:1,2011-02-01T15:00:00Z,27.5400,-82.7400,-0.289,1111122 
COMPS,ioos:station:USF.COMPS:ANM:1,2011-02-01T15:06:00Z,27.5400,-82.7400,-0.288,1111122 
COMPS,ioos:station:USF.COMPS:ANM:1,2011-02-01T15:12:00Z,27.5400,-82.7400,-0.282,1111122 
COMPS,ioos:station:USF.COMPS:ANM:1,2011-02-01T15:18:00Z,27.5400,-82.7400,-0.273,1111122 
COMPS,ioos:station:USF.COMPS:ANM:1,2011-02-01T15:24:00Z,27.5400,-82.7400,-0.246,1111122 
COMPS,ioos:station:USF.COMPS:ANM:1,2011-02-01T15:30:00Z,27.5400,-82.7400,-0.238,1111122 
COMPS,ioos:station:USF.COMPS:ANM:1,2011-02-01T15:36:00Z,27.5400,-82.7400,-0.235,1111122 
COMPS,ioos:station:USF.COMPS:ANM:1,2011-02-01T15:42:00Z,27.5400,-82.7400,-0.226,1111122 
COMPS,ioos:station:USF.COMPS:ANM:1,2011-02-01T15:48:00Z,27.5400,-82.7400,-0.213,1111122 
COMPS,ioos:station:USF.COMPS:ANM:1,2011-02-01T15:54:00Z,27.5400,-82.7400,-0.21,1111122 
COMPS,ioos:station:USF.COMPS:ANM:1,2011-02-01T16:00:00Z,27.5400,-82.7400,-0.206,1111122 
COMPS,ioos:station:USF.COMPS:ANM:1,2011-02-01T16:06:00Z,27.5400,-82.7400,-0.194,1111122 
COMPS,ioos:station:USF.COMPS:ANM:1,2011-02-01T16:12:00Z,27.5400,-82.7400,-0.192,1111122 
COMPS,ioos:station:USF.COMPS:ANM:1,2011-02-01T16:18:00Z,27.5400,-82.7400,-0.184,1111122 
COMPS,ioos:station:USF.COMPS:ANM:1,2011-02-01T16:24:00Z,27.5400,-82.7400,-0.171,1111122 
COMPS,ioos:station:USF.COMPS:ANM:1,2011-02-01T16:30:00Z,27.5400,-82.7400,-0.164,1111122 
COMPS,ioos:station:USF.COMPS:ANM:1,2011-02-01T16:36:00Z,27.5400,-82.7400,-0.158,1111122 
COMPS,ioos:station:USF.COMPS:ANM:1,2011-02-01T16:42:00Z,27.5400,-82.7400,-0.159,1111122 
COMPS,ioos:station:USF.COMPS:ANM:1,2011-02-01T16:48:00Z,27.5400,-82.7400,-0.157,1111122 
COMPS,ioos:station:USF.COMPS:ANM:1,2011-02-01T16:54:00Z,27.5400,-82.7400,-0.154,1111122 
COMPS,ioos:station:USF.COMPS:ANM:1,2011-02-01T17:00:00Z,27.5400,-82.7400,-0.154,1111122 
COMPS,ioos:station:USF.COMPS:ANM:1,2011-02-01T17:06:00Z,27.5400,-82.7400,-0.14,1111122 
COMPS,ioos:station:USF.COMPS:ANM:1,2011-02-01T17:12:00Z,27.5400,-82.7400,-0.137,1111122 
COMPS,ioos:station:USF.COMPS:ANM:1,2011-02-01T17:18:00Z,27.5400,-82.7400,-0.165,1111122 
COMPS,ioos:station:USF.COMPS:ANM:1,2011-02-01T17:24:00Z,27.5400,-82.7400,-0.154,1111122 
COMPS,ioos:station:USF.COMPS:ANM:1,2011-02-01T17:30:00Z,27.5400,-82.7400,-0.152,1111122 
COMPS,ioos:station:USF.COMPS:ANM:1,2011-02-01T17:36:00Z,27.5400,-82.7400,-0.143,1111122 
COMPS,ioos:station:USF.COMPS:ANM:1,2011-02-01T17:42:00Z,27.5400,-82.7400,-0.132,1111122 
COMPS,ioos:station:USF.COMPS:ANM:1,2011-02-01T17:48:00Z,27.5400,-82.7400,-0.147,1111122 
COMPS,ioos:station:USF.COMPS:ANM:1,2011-02-01T17:54:00Z,27.5400,-82.7400,-0.153,1111122 
COMPS,ioos:station:USF.COMPS:ANM:1,2011-02-01T18:00:00Z,27.5400,-82.7400,-0.145,1111122 
COMPS,ioos:station:USF.COMPS:ANM:1,2011-02-01T18:06:00Z,27.5400,-82.7400,-0.144,1111122 
COMPS,ioos:station:USF.COMPS:ANM:1,2011-02-01T18:12:00Z,27.5400,-82.7400,-0.136,1111122 
COMPS,ioos:station:USF.COMPS:ANM:1,2011-02-01T18:18:00Z,27.5400,-82.7400,-0.137,1111122 
COMPS,ioos:station:USF.COMPS:ANM:1,2011-02-01T18:24:00Z,27.5400,-82.7400,-0.156,1111122 
COMPS,ioos:station:USF.COMPS:ANM:1,2011-02-01T18:30:00Z,27.5400,-82.7400,-0.144,1111122 
COMPS,ioos:station:USF.COMPS:ANM:1,2011-02-01T18:36:00Z,27.5400,-82.7400,-0.145,1111122 
COMPS,ioos:station:USF.COMPS:ANM:1,2011-02-01T18:42:00Z,27.5400,-82.7400,-0.153,1111122 
COMPS,ioos:station:USF.COMPS:ANM:1,2011-02-01T18:48:00Z,27.5400,-82.7400,-0.162,1111122 
COMPS,ioos:station:USF.COMPS:ANM:1,2011-02-01T18:54:00Z,27.5400,-82.7400,-0.168,1111122 
COMPS,ioos:station:USF.COMPS:ANM:1,2011-02-01T19:00:00Z,27.5400,-82.7400,-0.181,1111122 
COMPS,ioos:station:USF.COMPS:ANM:1,2011-02-01T19:06:00Z,27.5400,-82.7400,-0.198,1111122 
COMPS,ioos:station:USF.COMPS:ANM:1,2011-02-01T19:12:00Z,27.5400,-82.7400,-0.174,1111122 
COMPS,ioos:station:USF.COMPS:ANM:1,2011-02-01T19:18:00Z,27.5400,-82.7400,-0.178,1111122 
COMPS,ioos:station:USF.COMPS:ANM:1,2011-02-01T19:24:00Z,27.5400,-82.7400,-0.197,1111122 
COMPS,ioos:station:USF.COMPS:ANM:1,2011-02-01T19:30:00Z,27.5400,-82.7400,-0.197,1111122 
COMPS,ioos:station:USF.COMPS:ANM:1,2011-02-01T19:36:00Z,27.5400,-82.7400,-0.196,1111122 
COMPS,ioos:station:USF.COMPS:ANM:1,2011-02-01T19:42:00Z,27.5400,-82.7400,-0.196,1111122 
COMPS,ioos:station:USF.COMPS:ANM:1,2011-02-01T19:48:00Z,27.5400,-82.7400,-0.216,1111122 
COMPS,ioos:station:USF.COMPS:ANM:1,2011-02-01T19:54:00Z,27.5400,-82.7400,-0.206,1111122 
COMPS,ioos:station:USF.COMPS:ANM:1,2011-02-01T20:00:00Z,27.5400,-82.7400,-0.211,1111122 
COMPS,ioos:station:USF.COMPS:ANM:1,2011-02-01T20:06:00Z,27.5400,-82.7400,-0.204,1111122 
COMPS,ioos:station:USF.COMPS:ANM:1,2011-02-01T20:12:00Z,27.5400,-82.7400,-0.197,1111122 
COMPS,ioos:station:USF.COMPS:ANM:1,2011-02-01T20:18:00Z,27.5400,-82.7400,-0.208,1111122 
COMPS,ioos:station:USF.COMPS:ANM:1,2011-02-01T20:24:00Z,27.5400,-82.7400,-0.209,1111122 
COMPS,ioos:station:USF.COMPS:ANM:1,2011-02-01T20:30:00Z,27.5400,-82.7400,-0.201,1111122 
COMPS,ioos:station:USF.COMPS:ANM:1,2011-02-01T20:36:00Z,27.5400,-82.7400,-0.193,1111122 
COMPS,ioos:station:USF.COMPS:ANM:1,2011-02-01T20:42:00Z,27.5400,-82.7400,-0.212,1111122 
COMPS,ioos:station:USF.COMPS:ANM:1,2011-02-01T20:48:00Z,27.5400,-82.7400,-0.192,1111122 
COMPS,ioos:station:USF.COMPS:ANM:1,2011-02-01T20:54:00Z,27.5400,-82.7400,-0.189,1111122 
COMPS,ioos:station:USF.COMPS:ANM:1,2011-02-01T21:00:00Z,27.5400,-82.7400,-0.19,1111122 
COMPS,ioos:station:USF.COMPS:ANM:1,2011-02-01T21:06:00Z,27.5400,-82.7400,-0.188,1111122 
COMPS,ioos:station:USF.COMPS:ANM:1,2011-02-01T21:12:00Z,27.5400,-82.7400,-0.187,1111122 
COMPS,ioos:station:USF.COMPS:ANM:1,2011-02-01T21:18:00Z,27.5400,-82.7400,-0.192,1111122 
COMPS,ioos:station:USF.COMPS:ANM:1,2011-02-01T21:24:00Z,27.5400,-82.7400,-0.188,1111122 
COMPS,ioos:station:USF.COMPS:ANM:1,2011-02-01T21:30:00Z,27.5400,-82.7400,-0.175,1111122 
COMPS,ioos:station:USF.COMPS:ANM:1,2011-02-01T21:36:00Z,27.5400,-82.7400,-0.171,1111122 
COMPS,ioos:station:USF.COMPS:ANM:1,2011-02-01T21:42:00Z,27.5400,-82.7400,-0.165,1111122 
COMPS,ioos:station:USF.COMPS:ANM:1,2011-02-01T21:48:00Z,27.5400,-82.7400,-0.161,1111122 
COMPS,ioos:station:USF.COMPS:ANM:1,2011-02-01T21:54:00Z,27.5400,-82.7400,-0.171,1111122 
COMPS,ioos:station:USF.COMPS:ANM:1,2011-02-01T22:00:00Z,27.5400,-82.7400,-0.174,1111122 
COMPS,ioos:station:USF.COMPS:ANM:1,2011-02-01T22:06:00Z,27.5400,-82.7400,-0.168,1111122 
COMPS,ioos:station:USF.COMPS:ANM:1,2011-02-01T22:12:00Z,27.5400,-82.7400,-0.15,1111122 
COMPS,ioos:station:USF.COMPS:ANM:1,2011-02-01T22:18:00Z,27.5400,-82.7400,-0.143,1111122 
COMPS,ioos:station:USF.COMPS:ANM:1,2011-02-01T22:24:00Z,27.5400,-82.7400,-0.139,1111122 
COMPS,ioos:station:USF.COMPS:ANM:1,2011-02-01T22:30:00Z,27.5400,-82.7400,-0.134,1111122 
COMPS,ioos:station:USF.COMPS:ANM:1,2011-02-01T22:36:00Z,27.5400,-82.7400,-0.124,1111122 
COMPS,ioos:station:USF.COMPS:ANM:1,2011-02-01T22:42:00Z,27.5400,-82.7400,-0.129,1111122 
COMPS,ioos:station:USF.COMPS:ANM:1,2011-02-01T22:48:00Z,27.5400,-82.7400,-0.127,1111122 
COMPS,ioos:station:USF.COMPS:ANM:1,2011-02-01T22:54:00Z,27.5400,-82.7400,-0.121,1111122 
COMPS,ioos:station:USF.COMPS:ANM:1,2011-02-01T23:00:00Z,27.5400,-82.7400,-0.099,1111122 
COMPS,ioos:station:USF.COMPS:ANM:1,2011-02-01T23:06:00Z,27.5400,-82.7400,-0.082,1111122 
COMPS,ioos:station:USF.COMPS:ANM:1,2011-02-01T23:12:00Z,27.5400,-82.7400,-0.071,1111122 
COMPS,ioos:station:USF.COMPS:ANM:1,2011-02-01T23:18:00Z,27.5400,-82.7400,-0.07,1111122 
COMPS,ioos:station:USF.COMPS:ANM:1,2011-02-01T23:24:00Z,27.5400,-82.7400,-0.063,1111122 
COMPS,ioos:station:USF.COMPS:ANM:1,2011-02-01T23:30:00Z,27.5400,-82.7400,-0.051,1111122 
COMPS,ioos:station:USF.COMPS:ANM:1,2011-02-01T23:36:00Z,27.5400,-82.7400,-0.037,1111122 
COMPS,ioos:station:USF.COMPS:ANM:1,2011-02-01T23:42:00Z,27.5400,-82.7400,-0.028,1111122 
COMPS,ioos:station:USF.COMPS:ANM:1,2011-02-01T23:48:00Z,27.5400,-82.7400,-0.017,1111122 
COMPS,ioos:station:USF.COMPS:ANM:1,2011-02-01T23:54:00Z,27.5400,-82.7400,-0.011,1111122 
COMPS,ioos:station:USF.COMPS:ANM:1,2011-02-02T00:00:00Z,27.5400,-82.7400,-0.001,1111122 
COMPS,ioos:station:USF.COMPS:ANM:1,2011-02-02T00:06:00Z,27.5400,-82.7400,0.004,1111122 
COMPS,ioos:station:USF.COMPS:ANM:1,2011-02-02T00:12:00Z,27.5400,-82.7400,0.009,1111122 
COMPS,ioos:station:USF.COMPS:ANM:1,2011-02-02T00:18:00Z,27.5400,-82.7400,0.027,1111122 
COMPS,ioos:station:USF.COMPS:ANM:1,2011-02-02T00:24:00Z,27.5400,-82.7400,0.044,1111122 
COMPS,ioos:station:USF.COMPS:ANM:1,2011-02-02T00:30:00Z,27.5400,-82.7400,0.052,1111122 
COMPS,ioos:station:USF.COMPS:ANM:1,2011-02-02T00:36:00Z,27.5400,-82.7400,0.058,1111122 
COMPS,ioos:station:USF.COMPS:ANM:1,2011-02-02T00:42:00Z,27.5400,-82.7400,0.069,1111122 
COMPS,ioos:station:USF.COMPS:ANM:1,2011-02-02T00:48:00Z,27.5400,-82.7400,0.099,1111122 
COMPS,ioos:station:USF.COMPS:ANM:1,2011-02-02T00:54:00Z,27.5400,-82.7400,0.117,1111122 
COMPS,ioos:station:USF.COMPS:ANM:1,2011-02-02T01:00:00Z,27.5400,-82.7400,0.123,1111122 
COMPS,ioos:station:USF.COMPS:ANM:1,2011-02-02T01:06:00Z,27.5400,-82.7400,0.12,1111122 
COMPS,ioos:station:USF.COMPS:ANM:1,2011-02-02T01:12:00Z,27.5400,-82.7400,0.125,1111122 
COMPS,ioos:station:USF.COMPS:ANM:1,2011-02-02T01:18:00Z,27.5400,-82.7400,0.135,1111122 
COMPS,ioos:station:USF.COMPS:ANM:1,2011-02-02T01:24:00Z,27.5400,-82.7400,0.163,1111122 
COMPS,ioos:station:USF.COMPS:ANM:1,2011-02-02T01:30:00Z,27.5400,-82.7400,0.187,1111122 
COMPS,ioos:station:USF.COMPS:ANM:1,2011-02-02T01:36:00Z,27.5400,-82.7400,0.193,1111122 
COMPS,ioos:station:USF.COMPS:ANM:1,2011-02-02T01:42:00Z,27.5400,-82.7400,0.202,1111122 
COMPS,ioos:station:USF.COMPS:ANM:1,2011-02-02T01:48:00Z,27.5400,-82.7400,0.22,1111122 
COMPS,ioos:station:USF.COMPS:ANM:1,2011-02-02T01:54:00Z,27.5400,-82.7400,0.235,1111122 
COMPS,ioos:station:USF.COMPS:ANM:1,2011-02-02T02:00:00Z,27.5400,-82.7400,0.242,1111122 
COMPS,ioos:station:USF.COMPS:ANM:1,2011-02-02T02:06:00Z,27.5400,-82.7400,0.248,1111122 
COMPS,ioos:station:USF.COMPS:ANM:1,2011-02-02T02:12:00Z,27.5400,-82.7400,0.247,1111122 
COMPS,ioos:station:USF.COMPS:ANM:1,2011-02-02T02:18:00Z,27.5400,-82.7400,0.249,1111122 
COMPS,ioos:station:USF.COMPS:ANM:1,2011-02-02T02:24:00Z,27.5400,-82.7400,0.26,1111122 
COMPS,ioos:station:USF.COMPS:ANM:1,2011-02-02T02:30:00Z,27.5400,-82.7400,0.268,1111122 
COMPS,ioos:station:USF.COMPS:ANM:1,2011-02-02T02:36:00Z,27.5400,-82.7400,0.264,1111122 
COMPS,ioos:station:USF.COMPS:ANM:1,2011-02-02T02:42:00Z,27.5400,-82.7400,0.255,1111122 
COMPS,ioos:station:USF.COMPS:ANM:1,2011-02-02T02:48:00Z,27.5400,-82.7400,0.251,1111122 